Weather Roundup
Issued by NWS Springfield, MO

Home | Current Version | Previous Version | Text Only | Print | Product List | Glossary Off
Versions: 1 2 3 4 5 6 7 8 9 10 11 12 13 14 15 16 17 18 19 20 21 22 23 24 25 26 27 28 29 30 31 32 33 34 35 36 37 38 39 40 41 42 43 44 45 46 47 48 49 50

126
NZUS99 KSGF 270057
HRRSGF

HOURLY WEATHER
NATIONAL WEATHER SERVICE SPRINGFIELD MO
800 PM CDT MON SEP 26 2016

......SGF CWA......

CITY           SKY/WX    TMP DP  RH WIND       PRES   REMARKS
SPRINGFIELD    CLEAR     58  45  62 CALM      30.15S
JOPLIN         CLEAR     59  44  57 CALM      30.16F
WEST PLAINS    CLEAR     57  48  72 NW3       30.16S
ROLLA          CLEAR     56  45  66 W5        30.12S
BRANSON        PTCLDY    57  48  72 CALM      30.16S

......SURROUNDING SGF CWA......

CITY           SKY/WX    TMP DP  RH WIND       PRES   REMARKS
CHANUTE        CLEAR     60  53  77 CALM      30.16S
PARSONS        CLEAR     55  51  86 CALM      30.18S
COFFEYVILLE    CLEAR     61  50  67 CALM      30.16S
EMPORIA        CLEAR     63  47  55 W3        30.17S
HARRISON AR    PTCLDY    60  47  61 N3        30.16R

......KANSAS AND MISSOURI......

CITY           SKY/WX    TMP DP  RH WIND       PRES   REMARKS
KANSAS CTY INT CLEAR     62  46  55 SW7       30.12S
SEDALIA        CLEAR     64  41  42 W5        30.14S
ST JOSEPH      CLEAR     62  52  69 SW6       30.10S
ST LOUIS       CLEAR     66  41  40 W6        30.10R
WICHITA        PTCLDY    60  50  69 SW5       30.18R
TOPEKA         CLEAR     64  48  56 SW6       30.13F
OLATHE         CLEAR     61  49  64 CALM      30.14S

......TENNESSEE......

CITY           SKY/WX    TMP DP  RH WIND       PRES   REMARKS
MEMPHIS        NOT AVBL
NASHVILLE      CLOUDY    65  59  81 N6        30.09R

......ARKANSAS.......

CITY           SKY/WX    TMP DP  RH WIND       PRES   REMARKS
FAYETTEVILLE   CLEAR     54  51  90 CALM      30.16R
FT SMITH       PTCLDY    71  44  37 N9        30.12R
LITTLE ROCK    PTCLDY    71  54  54 NE3       30.10R

......OKLAHOMA.......

CITY           SKY/WX    TMP DP  RH WIND       PRES   REMARKS
TULSA          CLOUDY    64  45  49 N5        30.15S
PONCA CITY     CLEAR     63  46  54 CALM      30.17S
MCALESTER      PTCLDY    67  44  43 N8        30.14S
OKLAHOMA CITY  MOCLDY    68  38  33 N8        30.18R

......IOWA............

CITY           SKY/WX    TMP DP  RH WIND       PRES   REMARKS
DES MOINES     NOT AVBL
QUAD CITIES    CLEAR     61  40  45 SW6       29.98S

......ILLINOIS........

CITY           SKY/WX    TMP DP  RH WIND       PRES   REMARKS
QUINCY         NOT AVBL
CHICAGO        CLEAR     62  34  35 W10       29.93S




USA.gov is the U.S. government's official web portal to all federal, state and local government web resources and services.